User: anonymous
Location: Columbia
(38.9520°N, 92.3340°W)
Time: 15:13:52
(UTC-05:00)
Language:

Cosmos 1603 - Orbit

View from above orbital plane
View from above orbital plane
View from above satellite
View from above satellite

Ground track
Ground track

The orbit data is extracted from the following two-line orbital elements,

1 15333U 84106A   14241.50074927  .00000183  00000-0  12111-3 0   633
2 15333 071.0275 073.6837 0021293 320.1332 065.1124 14.13949729543701
Epoch (UTC): 29 August 2014 12:01:04
Eccentricity: 0.0021293
inclination: 71.0275°
perigee height: 830 km
apogee height: 861 km
right ascension of ascending node: 73.6837°
argument of perigee: 320.1332°
revolutions per day: 14.13949729
mean anomaly at epoch: 65.1124°
orbit number at epoch: 54370

The dashed part of the orbit path shows where the satellite is in the earth's shadow,  

DLR